星链-11426 (STARLINK-11426)

导读 | 豆包AI

STARLINK-11426是美国SpaceX公司星链星座的第二代互联网卫星,于2024年11月24日由猎鹰9号火箭发射入轨。作为星链Gen2批次成员,它配备增强型相控阵天线与激光星间链路,工作在近地轨道,可提供高速低延迟的全球宽带互联服务,支持住宅、移动等多场景接入,助力星链完成全球覆盖与容量扩展,目前已进入正常在轨工作状态。

基本信息
目录编号:
62058
目录名称:
STARLINK-11426
国际标识:
2024-217B
轨道中心:
EARTH
卫星名称:
星链-11426
卫星全名:
星链-11426 (STARLINK-11426)
卫星状态:
在轨 (已飞行476 天)
发射日期:
2024-11-24 UTC
国别 :
美国 (US)
星等 :
--
轨道信息
数据来源 国际轨道数据
星历时间: 2026-03-15T05:19:20+0800
9小时前
查看轨道信息
半长轴: 6736.984km
偏心率: 0.000236
轨道倾角: 53.157°
近地点辐角 127.073°
升交点赤经 45.367°
平近点角 233.051°
近地点: 357.257km
远地点: 360.437km
周期: 91.719分钟
每日圈数: 15.700178
详细信息
固有亮度:
5
最大亮度:
2.5
卫星平台:
Starlink V1.0
覆盖范围:
全球
运营商:
太空探索技术公司
运营商所在国:
美国
制造商(研发单位):
太空探索技术公司
制造商所在国:
美国
使用方式:
暂无
卫星简介
Starlink 计划是 SpaceX 推出的全球卫星互联网项目,通过发射低轨道卫星,为全球尤其是偏远地区提供高速、低延迟的互联网服务。自 2019 年起,Starlink 已部署数千颗卫星,旨在缩小全球数字鸿沟,推动互联网普及。该项目还为军事、航空等行业提供通信支持,带来广泛经济效益。
2D轨道图
3D轨道图
轨道高度分析图
轨道倾角分析图
轨道综合分析图
查看轨道综合分析图